Time,TemperatureF,DewpointF,PressureIn,WindDirection,WindDirectionDegrees,WindSpeedMPH,WindSpeedGustMPH,Humidity,HourlyPrecipIn,Conditions,Clouds,dailyrainin,SoftwareType,DateUTC
2013-02-13 00:00:00,53.3,27.0,29.90,NNE,18,2.0,3.0,36,0.00,,,0.90,Wunderground v.1.15,2013-02-13 05:00:00,
2013-02-13 00:01:00,53.3,27.0,29.90,NNE,30,0.0,3.0,36,0.00,,,0.00,Wunderground v.1.15,2013-02-13 05:01:00,
2013-02-13 00:02:00,53.3,27.0,29.90,NE,40,7.0,7.0,36,0.00,,,0.00,Wunderground v.1.15,2013-02-13 05:02:00,
2013-02-13 00:08:00,53.3,27.7,29.89,ENE,78,9.0,9.0,37,0.00,,,0.00,Wunderground v.1.15,2013-02-13 05:08:00,
2013-02-13 00:14:00,53.3,27.7,29.89,NNE,28,4.0,9.0,37,0.00,,,0.01,Wunderground v.1.15,2013-02-13 05:14:00,
2013-02-13 00:19:00,53.4,27.8,29.90,NNE,17,0.0,9.0,37,0.00,,,0.01,Wunderground v.1.15,2013-02-13 05:19:00,
2013-02-13 00:25:00,53.5,27.8,29.90,NNE,19,0.0,5.0,37,0.00,,,0.01,Wunderground v.1.15,2013-02-13 05:25:00,
2013-02-13 00:30:00,53.1,27.5,29.88,NNE,30,5.0,5.0,37,0.00,,,0.01,Wunderground v.1.15,2013-02-13 05:30:00,
2013-02-13 00:35:00,52.8,27.2,29.88,NE,55,6.0,9.0,37,0.00,,,0.01,Wunderground v.1.15,2013-02-13 05:35:00,
2013-02-13 00:40:00,52.6,27.0,29.89,NE,51,0.0,5.0,37,0.00,,,0.01,Wunderground v.1.15,2013-02-13 05:40:00,
2013-02-13 00:45:00,52.7,27.1,29.91,NE,37,9.0,9.0,37,0.00,,,0.02,Wunderground v.1.15,2013-02-13 05:45:00,
2013-02-13 00:50:00,52.6,27.0,29.89,NE,34,9.0,9.0,37,0.00,,,0.02,Wunderground v.1.15,2013-02-13 05:50:00,
2013-02-13 00:55:00,52.4,26.9,29.89,NNE,19,7.0,11.0,37,0.00,,,0.02,Wunderground v.1.15,2013-02-13 05:55:00,
2013-02-13 01:00:00,52.4,26.9,29.88,North,11,0.0,6.0,37,0.00,,,0.02,Wunderground v.1.15,2013-02-13 06:00:00,
2013-02-13 01:06:00,52.4,26.9,29.87,NNE,29,4.0,6.0,37,0.00,,,0.02,Wunderground v.1.15,2013-02-13 06:06:00,
2013-02-13 01:11:00,52.3,26.8,29.87,NNE,33,0.0,6.0,37,0.00,,,0.02,Wunderground v.1.15,2013-02-13 06:11:00,
2013-02-13 01:16:00,52.2,26.7,29.88,North,355,2.0,6.0,37,0.00,,,0.03,Wunderground v.1.15,2013-02-13 06:16:00,
2013-02-13 01:22:00,52.1,26.6,29.86,NNE,29,0.0,6.0,37,0.00,,,0.03,Wunderground v.1.15,2013-02-13 06:22:00,
2013-02-13 01:28:00,51.9,26.4,29.85,NNE,15,3.0,9.0,37,0.00,,,0.03,Wunderground v.1.15,2013-02-13 06:28:00,
2013-02-13 01:33:00,51.8,26.3,29.84,NE,40,4.0,7.0,37,0.00,,,0.03,Wunderground v.1.15,2013-02-13 06:33:00,
2013-02-13 01:38:00,51.8,26.3,29.85,North,11,8.0,11.0,37,0.00,,,0.03,Wunderground v.1.15,2013-02-13 06:38:00,
2013-02-13 01:44:00,51.8,26.3,29.86,North,11,11.0,11.0,37,0.00,,,0.03,Wunderground v.1.15,2013-02-13 06:44:00,
2013-02-13 01:49:00,51.6,26.1,29.85,NNE,17,3.0,13.0,37,0.00,,,0.04,Wunderground v.1.15,2013-02-13 06:49:00,
2013-02-13 01:54:00,51.2,25.8,29.87,North,360,0.0,9.0,37,0.00,,,0.04,Wunderground v.1.15,2013-02-13 06:54:00,
2013-02-13 02:00:00,51.1,25.7,29.85,NNE,27,6.0,6.0,37,0.00,,,0.04,Wunderground v.1.15,2013-02-13 07:00:00,
2013-02-13 02:05:00,50.9,25.5,29.86,North,5,0.0,9.0,37,0.00,,,0.04,Wunderground v.1.15,2013-02-13 07:05:00,
2013-02-13 02:10:00,50.8,25.4,29.85,NE,52,6.0,6.0,37,0.00,,,0.04,Wunderground v.1.15,2013-02-13 07:10:00,
2013-02-13 02:15:00,50.7,25.3,29.85,NE,48,0.0,10.0,37,0.00,,,0.04,Wunderground v.1.15,2013-02-13 07:15:00,
2013-02-13 02:20:00,50.7,25.3,29.85,North,9,0.0,4.0,37,0.00,,,0.04,Wunderground v.1.15,2013-02-13 07:20:00,
2013-02-13 02:25:00,50.8,26.1,29.84,NE,55,0.0,10.0,38,0.00,,,0.05,Wunderground v.1.15,2013-02-13 07:25:00,
2013-02-13 02:30:00,50.9,26.2,29.84,NE,54,5.0,7.0,38,0.00,,,0.05,Wunderground v.1.15,2013-02-13 07:30:00,
2013-02-13 02:35:00,50.9,26.2,29.84,NE,51,0.0,9.0,38,0.00,,,0.05,Wunderground v.1.15,2013-02-13 07:35:00,
2013-02-13 02:40:00,51.0,26.3,29.83,ENE,69,6.0,10.0,38,0.00,,,0.05,Wunderground v.1.15,2013-02-13 07:40:00,
2013-02-13 02:45:00,51.1,26.3,29.85,West,271,4.0,10.0,38,0.00,,,0.05,Wunderground v.1.15,2013-02-13 07:45:00,
2013-02-13 02:50:00,51.2,26.4,29.86,WSW,253,6.0,8.0,38,0.00,,,0.06,Wunderground v.1.15,2013-02-13 07:50:00,
2013-02-13 02:55:00,51.2,26.4,29.84,NE,41,0.0,8.0,38,0.00,,,0.06,Wunderground v.1.15,2013-02-13 07:55:00,
2013-02-13 03:00:00,51.2,26.4,29.85,NE,54,0.0,2.0,38,0.00,,,0.06,Wunderground v.1.15,2013-02-13 08:00:00,
2013-02-13 03:05:00,51.2,26.4,29.84,East,84,7.0,8.0,38,0.00,,,0.06,Wunderground v.1.15,2013-02-13 08:05:00,
2013-02-13 03:10:00,51.1,26.3,29.83,East,82,6.0,9.0,38,0.00,,,0.06,Wunderground v.1.15,2013-02-13 08:10:00,
2013-02-13 03:15:00,50.9,26.2,29.82,East,80,6.0,14.0,38,0.00,,,0.06,Wunderground v.1.15,2013-02-13 08:15:00,
2013-02-13 03:20:00,50.7,26.0,29.82,NE,40,7.0,9.0,38,0.00,,,0.06,Wunderground v.1.15,2013-02-13 08:20:00,
2013-02-13 03:25:00,50.4,25.7,29.82,ENE,78,8.0,11.0,38,0.00,,,0.06,Wunderground v.1.15,2013-02-13 08:25:00,
2013-02-13 03:30:00,50.3,25.6,29.80,ENE,74,9.0,10.0,38,0.00,,,0.06,Wunderground v.1.15,2013-02-13 08:30:00,
2013-02-13 03:35:00,50.4,25.7,29.79,ENE,69,7.0,13.0,38,0.00,,,0.07,Wunderground v.1.15,2013-02-13 08:35:00,
2013-02-13 03:40:00,50.1,25.5,29.79,ENE,59,7.0,12.0,38,0.00,,,0.07,Wunderground v.1.15,2013-02-13 08:40:00,
2013-02-13 03:45:00,50.2,25.5,29.79,ENE,67,2.0,12.0,38,0.00,,,0.07,Wunderground v.1.15,2013-02-13 08:45:00,
2013-02-13 03:50:00,50.4,25.7,29.78,East,82,8.0,9.0,38,0.00,,,0.07,Wunderground v.1.15,2013-02-13 08:50:00,
2013-02-13 03:55:00,50.6,25.9,29.79,East,82,7.0,11.0,38,0.00,,,0.07,Wunderground v.1.15,2013-02-13 08:55:00,
2013-02-13 04:00:00,50.8,26.1,29.79,ENE,65,6.0,10.0,38,0.00,,,0.07,Wunderground v.1.15,2013-02-13 09:00:00,
2013-02-13 04:05:00,51.0,26.3,29.79,NE,34,6.0,11.0,38,0.00,,,0.07,Wunderground v.1.15,2013-02-13 09:05:00,
2013-02-13 04:10:00,51.1,26.3,29.78,NE,55,5.0,8.0,38,0.00,,,0.08,Wunderground v.1.15,2013-02-13 09:10:00,
2013-02-13 04:15:00,51.1,26.3,29.79,ENE,63,7.0,9.0,38,0.00,,,0.08,Wunderground v.1.15,2013-02-13 09:15:00,
2013-02-13 04:20:00,51.2,26.4,29.79,NE,52,4.0,6.0,38,0.00,,,0.08,Wunderground v.1.15,2013-02-13 09:20:00,
2013-02-13 04:25:00,51.4,26.6,29.78,East,84,6.0,7.0,38,0.00,,,0.08,Wunderground v.1.15,2013-02-13 09:25:00,
2013-02-13 04:30:00,51.5,26.7,29.77,East,91,10.0,10.0,38,0.00,,,0.08,Wunderground v.1.15,2013-02-13 09:30:00,
2013-02-13 04:35:00,51.6,26.8,29.78,NE,46,1.0,10.0,38,0.00,,,0.08,Wunderground v.1.15,2013-02-13 09:35:00,
2013-02-13 04:40:00,51.8,27.0,29.78,East,99,7.0,9.0,38,0.00,,,0.08,Wunderground v.1.15,2013-02-13 09:40:00,
2013-02-13 04:45:00,52.1,26.6,29.77,East,80,9.0,10.0,37,0.00,,,0.08,Wunderground v.1.15,2013-02-13 09:45:00,
2013-02-13 04:50:00,52.7,27.8,29.77,ENE,71,8.0,10.0,38,0.00,,,0.09,Wunderground v.1.15,2013-02-13 09:50:00,
2013-02-13 04:55:00,52.9,28.0,29.77,ENE,78,9.0,13.0,38,0.00,,,0.09,Wunderground v.1.15,2013-02-13 09:55:00,
2013-02-13 05:01:00,53.0,28.0,29.78,NE,38,0.0,7.0,38,0.00,,,0.09,Wunderground v.1.15,2013-02-13 10:01:00,
2013-02-13 05:06:00,53.3,27.7,29.78,ENE,63,4.0,10.0,37,0.00,,,0.09,Wunderground v.1.15,2013-02-13 10:06:00,
2013-02-13 05:11:00,53.4,27.8,29.78,ENE,61,2.0,6.0,37,0.00,,,0.09,Wunderground v.1.15,2013-02-13 10:11:00,
2013-02-13 05:16:00,53.6,27.9,29.77,ENE,63,3.0,8.0,37,0.00,,,0.09,Wunderground v.1.15,2013-02-13 10:16:00,
2013-02-13 05:21:00,53.6,27.9,29.77,ENE,78,4.0,7.0,37,0.00,,,0.09,Wunderground v.1.15,2013-02-13 10:21:00,
2013-02-13 05:26:00,53.7,28.0,29.76,ENE,59,2.0,7.0,37,0.00,,,0.09,Wunderground v.1.15,2013-02-13 10:26:00,
2013-02-13 05:31:00,53.8,28.1,29.77,ENE,73,7.0,7.0,37,0.00,,,0.10,Wunderground v.1.15,2013-02-13 10:31:00,
2013-02-13 05:36:00,53.9,28.2,29.78,ENE,61,0.0,7.0,37,0.00,,,0.10,Wunderground v.1.15,2013-02-13 10:36:00,
2013-02-13 05:41:00,53.9,28.2,29.76,East,81,6.0,7.0,37,0.00,,,0.10,Wunderground v.1.15,2013-02-13 10:41:00,
2013-02-13 05:46:00,54.0,28.3,29.75,NE,52,0.0,7.0,37,0.00,,,0.10,Wunderground v.1.15,2013-02-13 10:46:00,
2013-02-13 05:51:00,54.0,28.3,29.76,NE,53,0.0,1.0,37,0.00,,,0.10,Wunderground v.1.15,2013-02-13 10:51:00,
2013-02-13 05:56:00,54.2,28.5,29.76,NE,53,0.0,4.0,37,0.00,,,0.10,Wunderground v.1.15,2013-02-13 10:56:00,
2013-02-13 06:01:00,54.5,28.7,29.77,NE,53,0.0,0.0,37,0.00,,,0.10,Wunderground v.1.15,2013-02-13 11:01:00,
2013-02-13 06:06:00,54.5,28.7,29.77,NE,53,0.0,0.0,37,0.00,,,0.10,Wunderground v.1.15,2013-02-13 11:06:00,
2013-02-13 06:11:00,54.6,28.8,29.78,NE,53,0.0,0.0,37,0.00,,,0.10,Wunderground v.1.15,2013-02-13 11:11:00,
2013-02-13 06:16:00,54.7,28.9,29.77,NE,53,0.0,0.0,37,0.00,,,0.11,Wunderground v.1.15,2013-02-13 11:16:00,
2013-02-13 06:21:00,54.7,28.9,29.78,NE,53,0.0,0.0,37,0.00,,,0.11,Wunderground v.1.15,2013-02-13 11:21:00,
2013-02-13 06:26:00,54.8,29.0,29.78,NNW,346,7.0,9.0,37,0.00,,,0.11,Wunderground v.1.15,2013-02-13 11:26:00,
2013-02-13 06:31:00,54.5,28.7,29.78,NW,323,0.0,4.0,37,0.00,,,0.11,Wunderground v.1.15,2013-02-13 11:31:00,
2013-02-13 06:36:00,54.3,28.6,29.78,NW,320,4.0,9.0,37,0.00,,,0.11,Wunderground v.1.15,2013-02-13 11:36:00,
2013-02-13 06:41:00,54.2,28.5,29.78,NNW,348,5.0,6.0,37,0.00,,,0.11,Wunderground v.1.15,2013-02-13 11:41:00,
2013-02-13 06:46:00,53.9,28.2,29.78,NNW,342,5.0,7.0,37,0.00,,,0.11,Wunderground v.1.15,2013-02-13 11:46:00,
2013-02-13 06:51:00,53.9,28.2,29.78,NNW,344,6.0,6.0,37,0.00,,,0.12,Wunderground v.1.15,2013-02-13 11:51:00,
2013-02-13 06:56:00,53.9,28.2,29.78,NW,321,8.0,10.0,37,0.00,,,0.12,Wunderground v.1.15,2013-02-13 11:56:00,
2013-02-13 07:01:00,53.8,28.1,29.79,NW,324,5.0,6.0,37,0.00,,,0.12,Wunderground v.1.15,2013-02-13 12:01:00,
2013-02-13 07:06:00,53.9,28.2,29.79,NW,317,2.0,6.0,37,0.00,,,0.12,Wunderground v.1.15,2013-02-13 12:06:00,
2013-02-13 07:11:00,53.6,27.9,29.79,NNW,342,4.0,6.0,37,0.00,,,0.12,Wunderground v.1.15,2013-02-13 12:11:00,
2013-02-13 07:16:00,53.3,27.7,29.79,NNW,339,0.0,6.0,37,0.00,,,0.12,Wunderground v.1.15,2013-02-13 12:16:00,
2013-02-13 07:21:00,53.3,28.3,29.79,NNW,336,0.0,2.0,38,0.00,,,0.12,Wunderground v.1.15,2013-02-13 12:21:00,
2013-02-13 07:26:00,53.1,28.1,29.80,NNW,336,0.0,5.0,38,0.00,,,0.12,Wunderground v.1.15,2013-02-13 12:26:00,
2013-02-13 07:31:00,53.2,28.2,29.80,NNW,336,0.0,0.0,38,0.00,,,0.12,Wunderground v.1.15,2013-02-13 12:31:00,
2013-02-13 07:36:00,53.3,28.3,29.80,NNW,336,0.0,0.0,38,0.00,,,0.12,Wunderground v.1.15,2013-02-13 12:36:00,
2013-02-13 07:41:00,53.3,28.3,29.79,NNW,336,0.0,0.0,38,0.00,,,0.13,Wunderground v.1.15,2013-02-13 12:41:00,
2013-02-13 07:46:00,53.4,27.8,29.78,NNW,336,0.0,0.0,37,0.00,,,0.13,Wunderground v.1.15,2013-02-13 12:46:00,
2013-02-13 07:51:00,53.6,27.9,29.79,NNW,336,0.0,0.0,37,0.00,,,0.13,Wunderground v.1.15,2013-02-13 12:51:00,
2013-02-13 07:56:00,53.7,28.0,29.79,NNW,336,0.0,0.0,37,0.00,,,0.13,Wunderground v.1.15,2013-02-13 12:56:00,
2013-02-13 08:01:00,53.8,28.1,29.79,NNW,336,0.0,0.0,37,0.00,,,0.13,Wunderground v.1.15,2013-02-13 13:01:00,
2013-02-13 08:06:00,53.9,28.2,29.79,NNW,336,0.0,0.0,37,0.00,,,0.13,Wunderground v.1.15,2013-02-13 13:06:00,
2013-02-13 08:11:00,54.1,29.0,29.79,NNW,336,0.0,0.0,38,0.00,,,0.14,Wunderground v.1.15,2013-02-13 13:11:00,
2013-02-13 08:16:00,54.0,28.9,29.80,NNW,336,0.0,0.0,38,0.00,,,0.14,Wunderground v.1.15,2013-02-13 13:16:00,
2013-02-13 08:21:00,54.1,29.0,29.80,NNW,336,0.0,0.0,38,0.00,,,0.14,Wunderground v.1.15,2013-02-13 13:21:00,
2013-02-13 08:26:00,54.2,29.1,29.80,West,267,4.0,6.0,38,0.00,,,0.14,Wunderground v.1.15,2013-02-13 13:26:00,
2013-02-13 08:31:00,54.2,29.1,29.78,South,184,0.0,1.0,38,0.00,,,0.14,Wunderground v.1.15,2013-02-13 13:31:00,
2013-02-13 08:36:00,54.3,29.2,29.79,South,188,0.0,4.0,38,0.00,,,0.14,Wunderground v.1.15,2013-02-13 13:36:00,
2013-02-13 08:41:00,54.5,29.4,29.80,South,190,0.0,0.0,38,0.00,,,0.14,Wunderground v.1.15,2013-02-13 13:41:00,
2013-02-13 08:46:00,54.8,29.7,29.80,SSW,192,0.0,0.0,38,0.00,,,0.14,Wunderground v.1.15,2013-02-13 13:46:00,
2013-02-13 08:51:00,54.9,29.7,29.81,SSW,192,1.0,4.0,38,0.00,,,0.15,Wunderground v.1.15,2013-02-13 13:51:00,
2013-02-13 08:56:00,55.0,29.2,29.81,SSW,192,0.0,4.0,37,0.00,,,0.15,Wunderground v.1.15,2013-02-13 13:56:00,
2013-02-13 09:01:00,55.2,29.4,29.81,SSW,192,0.0,0.0,37,0.00,,,0.15,Wunderground v.1.15,2013-02-13 14:01:00,
2013-02-13 09:06:00,55.5,29.6,29.81,SSW,196,0.0,5.0,37,0.00,,,0.15,Wunderground v.1.15,2013-02-13 14:06:00,
2013-02-13 09:11:00,55.8,30.5,29.81,SSW,201,2.0,6.0,38,0.00,,,0.15,Wunderground v.1.15,2013-02-13 14:11:00,
2013-02-13 09:16:00,56.0,30.1,29.81,SW,219,2.0,6.0,37,0.00,,,0.16,Wunderground v.1.15,2013-02-13 14:16:00,
2013-02-13 09:21:00,56.3,30.3,29.80,SSW,205,0.0,4.0,37,0.00,,,0.16,Wunderground v.1.15,2013-02-13 14:21:00,
2013-02-13 09:26:00,56.8,30.8,29.80,SSW,195,5.0,6.0,37,0.00,,,0.16,Wunderground v.1.15,2013-02-13 14:26:00,
2013-02-13 09:31:00,57.2,31.1,29.80,South,184,4.0,7.0,37,0.00,,,0.16,Wunderground v.1.15,2013-02-13 14:31:00,
2013-02-13 09:36:00,57.7,31.6,29.81,South,191,0.0,7.0,37,0.00,,,0.16,Wunderground v.1.15,2013-02-13 14:36:00,
2013-02-13 09:41:00,58.1,31.9,29.82,West,263,5.0,7.0,37,0.00,,,0.16,Wunderground v.1.15,2013-02-13 14:41:00,
2013-02-13 09:46:00,58.5,32.3,29.82,WSW,241,6.0,7.0,37,0.00,,,0.17,Wunderground v.1.15,2013-02-13 14:46:00,
2013-02-13 09:51:00,58.8,32.6,29.82,WSW,241,7.0,7.0,37,0.00,,,0.17,Wunderground v.1.15,2013-02-13 14:51:00,
2013-02-13 09:56:00,59.1,32.8,29.81,SW,231,0.0,8.0,37,0.00,,,0.17,Wunderground v.1.15,2013-02-13 14:56:00,
2013-02-13 10:02:00,59.4,33.1,29.81,WSW,241,0.0,7.0,37,0.00,,,0.17,Wunderground v.1.15,2013-02-13 15:02:00,
2013-02-13 10:07:00,60.1,33.7,29.81,SW,217,8.0,11.0,37,0.00,,,0.18,Wunderground v.1.15,2013-02-13 15:07:00,
2013-02-13 10:12:00,60.4,34.0,29.81,SW,224,6.0,8.0,37,0.00,,,0.18,Wunderground v.1.15,2013-02-13 15:12:00,
2013-02-13 10:17:00,60.8,34.3,29.80,SW,230,9.0,9.0,37,0.00,,,0.18,Wunderground v.1.15,2013-02-13 15:17:00,
2013-02-13 10:22:00,61.0,34.5,29.80,West,263,8.0,9.0,37,0.00,,,0.18,Wunderground v.1.15,2013-02-13 15:22:00,
2013-02-13 10:27:00,61.7,35.1,29.81,SSW,213,2.0,13.0,37,0.00,,,0.18,Wunderground v.1.15,2013-02-13 15:27:00,
2013-02-13 10:32:00,62.4,35.8,29.81,WSW,244,7.0,11.0,37,0.00,,,0.18,Wunderground v.1.15,2013-02-13 15:32:00,
2013-02-13 10:37:00,62.9,36.2,29.80,West,263,1.0,11.0,37,0.00,,,0.19,Wunderground v.1.15,2013-02-13 15:37:00,
2013-02-13 10:42:00,63.4,36.7,29.80,WSW,246,0.0,7.0,37,0.00,,,0.19,Wunderground v.1.15,2013-02-13 15:42:00,
2013-02-13 10:47:00,63.6,36.8,29.80,SW,229,14.0,14.0,37,0.00,,,0.19,Wunderground v.1.15,2013-02-13 15:47:00,
2013-02-13 10:52:00,63.9,36.4,29.80,SSW,212,10.0,14.0,36,0.00,,,0.19,Wunderground v.1.15,2013-02-13 15:52:00,
2013-02-13 10:57:00,64.2,36.7,29.80,WSW,246,10.0,16.0,36,0.00,,,0.19,Wunderground v.1.15,2013-02-13 15:57:00,
2013-02-13 11:02:00,64.6,37.0,29.81,SSW,210,11.0,14.0,36,0.00,,,0.19,Wunderground v.1.15,2013-02-13 16:02:00,
2013-02-13 11:07:00,65.0,37.4,29.81,WSW,250,10.0,14.0,36,0.00,,,0.19,Wunderground v.1.15,2013-02-13 16:07:00,
2013-02-13 11:12:00,65.5,37.8,29.80,West,267,9.0,13.0,36,0.00,,,0.20,Wunderground v.1.15,2013-02-13 16:12:00,
2013-02-13 11:17:00,66.0,38.3,29.80,SSW,208,7.0,13.0,36,0.00,,,0.20,Wunderground v.1.15,2013-02-13 16:17:00,
2013-02-13 11:22:00,66.5,38.0,29.79,West,259,6.0,15.0,35,0.00,,,0.20,Wunderground v.1.15,2013-02-13 16:22:00,
2013-02-13 11:27:00,67.1,38.5,29.78,SW,217,9.0,18.0,35,0.00,,,0.20,Wunderground v.1.15,2013-02-13 16:27:00,
2013-02-13 11:32:00,67.6,38.2,29.79,West,263,11.0,20.0,34,0.00,,,0.20,Wunderground v.1.15,2013-02-13 16:32:00,
2013-02-13 11:37:00,68.0,37.8,29.79,WSW,250,5.0,20.0,33,0.00,,,0.20,Wunderground v.1.15,2013-02-13 16:37:00,
2013-02-13 11:42:00,68.5,38.2,29.79,SW,219,8.0,14.0,33,0.00,,,0.20,Wunderground v.1.15,2013-02-13 16:42:00,
2013-02-13 11:47:00,69.1,38.0,29.78,SSW,205,10.0,16.0,32,0.00,,,0.20,Wunderground v.1.15,2013-02-13 16:47:00,
2013-02-13 11:52:00,69.5,37.5,29.77,SSW,199,18.0,20.0,31,0.00,,,0.20,Wunderground v.1.15,2013-02-13 16:52:00,
2013-02-13 11:57:00,69.7,36.9,29.77,WSW,254,19.0,21.0,30,0.00,,,0.20,Wunderground v.1.15,2013-02-13 16:57:00,
2013-02-13 12:02:00,70.1,37.2,29.77,SW,234,8.0,21.0,30,0.00,,,0.21,Wunderground v.1.15,2013-02-13 17:02:00,
2013-02-13 12:08:00,70.4,37.5,29.77,SW,230,4.0,21.0,30,0.00,,,0.21,Wunderground v.1.15,2013-02-13 17:08:00,
2013-02-13 12:13:00,70.4,38.3,29.77,West,273,6.0,18.0,31,0.00,,,0.21,Wunderground v.1.15,2013-02-13 17:13:00,
2013-02-13 12:18:00,70.1,38.0,29.78,West,277,9.0,21.0,31,0.00,,,0.21,Wunderground v.1.15,2013-02-13 17:18:00,
2013-02-13 12:23:00,70.0,38.0,29.78,West,264,8.0,16.0,31,0.00,,,0.21,Wunderground v.1.15,2013-02-13 17:23:00,
2013-02-13 12:28:00,69.9,37.9,29.77,WSW,246,10.0,16.0,31,0.00,,,0.22,Wunderground v.1.15,2013-02-13 17:28:00,
2013-02-13 12:33:00,70.1,38.0,29.76,West,265,11.0,12.0,31,0.00,,,0.22,Wunderground v.1.15,2013-02-13 17:33:00,
2013-02-13 12:38:00,70.3,39.0,29.75,SW,219,14.0,22.0,32,0.00,,,0.22,Wunderground v.1.15,2013-02-13 17:38:00,
2013-02-13 12:43:00,70.3,39.0,29.75,SSW,210,12.0,22.0,32,0.00,,,0.22,Wunderground v.1.15,2013-02-13 17:43:00,
2013-02-13 12:48:00,70.5,39.2,29.75,South,187,20.0,25.0,32,0.00,,,0.22,Wunderground v.1.15,2013-02-13 17:48:00,
2013-02-13 12:53:00,70.6,39.3,29.75,WSW,238,10.0,23.0,32,0.00,,,0.22,Wunderground v.1.15,2013-02-13 17:53:00,
2013-02-13 12:58:00,70.5,39.2,29.75,SW,225,12.0,23.0,32,0.00,,,0.22,Wunderground v.1.15,2013-02-13 17:58:00,
2013-02-13 13:03:00,69.9,37.9,29.75,SSW,200,8.0,22.0,31,0.00,,,0.23,Wunderground v.1.15,2013-02-13 18:03:00,
2013-02-13 13:08:00,69.4,36.6,29.75,SW,219,11.0,24.0,30,0.00,,,0.23,Wunderground v.1.15,2013-02-13 18:08:00,
2013-02-13 13:13:00,68.9,36.2,29.75,SSW,209,10.0,23.0,30,0.00,,,0.23,Wunderground v.1.15,2013-02-13 18:13:00,
2013-02-13 13:18:00,69.1,36.3,29.74,SSW,192,9.0,23.0,30,0.00,,,0.23,Wunderground v.1.15,2013-02-13 18:18:00,
2013-02-13 13:23:00,69.3,36.5,29.74,South,180,13.0,26.0,30,0.00,,,0.23,Wunderground v.1.15,2013-02-13 18:23:00,
2013-02-13 13:28:00,69.6,36.8,29.73,SSW,211,18.0,26.0,30,0.00,,,0.24,Wunderground v.1.15,2013-02-13 18:28:00,
2013-02-13 13:33:00,69.7,36.9,29.73,SW,215,14.0,21.0,30,0.00,,,0.24,Wunderground v.1.15,2013-02-13 18:33:00,
2013-02-13 13:38:00,69.9,37.0,29.73,WSW,238,11.0,21.0,30,0.00,,,0.24,Wunderground v.1.15,2013-02-13 18:38:00,
2013-02-13 13:43:00,70.1,37.2,29.72,SSW,195,10.0,15.0,30,0.00,,,0.24,Wunderground v.1.15,2013-02-13 18:43:00,
2013-02-13 13:48:00,70.1,38.0,29.72,SW,227,13.0,20.0,31,0.00,,,0.24,Wunderground v.1.15,2013-02-13 18:48:00,
2013-02-13 13:53:00,70.1,37.2,29.72,SW,217,8.0,18.0,30,0.00,,,0.24,Wunderground v.1.15,2013-02-13 18:53:00,
2013-02-13 13:58:00,70.5,37.6,29.72,SW,232,14.0,18.0,30,0.00,,,0.25,Wunderground v.1.15,2013-02-13 18:58:00,
2013-02-13 14:03:00,71.0,38.8,29.72,SSW,205,8.0,14.0,31,0.00,,,0.25,Wunderground v.1.15,2013-02-13 19:03:00,
2013-02-13 14:08:00,71.2,39.0,29.71,SSW,206,15.0,15.0,31,0.00,,,0.25,Wunderground v.1.15,2013-02-13 19:08:00,
2013-02-13 14:13:00,71.0,39.6,29.71,WSW,238,7.0,18.0,32,0.00,,,0.25,Wunderground v.1.15,2013-02-13 19:13:00,
2013-02-13 14:18:00,70.7,38.6,29.71,SSW,201,11.0,19.0,31,0.00,,,0.25,Wunderground v.1.15,2013-02-13 19:18:00,
2013-02-13 14:23:00,70.6,38.5,29.71,SSW,210,14.0,20.0,31,0.00,,,0.26,Wunderground v.1.15,2013-02-13 19:23:00,
2013-02-13 14:28:00,70.3,37.4,29.71,SW,225,4.0,20.0,30,0.00,,,0.26,Wunderground v.1.15,2013-02-13 19:28:00,
2013-02-13 14:33:00,70.1,37.2,29.71,South,177,10.0,16.0,30,0.00,,,0.26,Wunderground v.1.15,2013-02-13 19:33:00,
2013-02-13 14:38:00,69.8,36.1,29.72,SW,234,8.0,16.0,29,0.00,,,0.26,Wunderground v.1.15,2013-02-13 19:38:00,
2013-02-13 14:43:00,69.6,35.9,29.72,South,175,7.0,20.0,29,0.00,,,0.26,Wunderground v.1.15,2013-02-13 19:43:00,
2013-02-13 14:48:00,69.4,35.7,29.72,SSW,194,9.0,21.0,29,0.00,,,0.26,Wunderground v.1.15,2013-02-13 19:48:00,
2013-02-13 14:53:00,69.4,35.7,29.72,SW,215,10.0,22.0,29,0.00,,,0.27,Wunderground v.1.15,2013-02-13 19:53:00,
2013-02-13 14:58:00,69.4,35.7,29.73,SW,221,13.0,22.0,29,0.00,,,0.27,Wunderground v.1.15,2013-02-13 19:58:00,
2013-02-13 15:03:00,69.6,35.9,29.73,South,188,10.0,16.0,29,0.00,,,0.27,Wunderground v.1.15,2013-02-13 20:03:00,
2013-02-13 15:08:00,69.9,36.2,29.73,SW,218,16.0,20.0,29,0.00,,,0.27,Wunderground v.1.15,2013-02-13 20:08:00,
2013-02-13 15:13:00,70.0,36.3,29.72,South,184,13.0,18.0,29,0.00,,,0.27,Wunderground v.1.15,2013-02-13 20:13:00,
2013-02-13 15:18:00,70.3,36.5,29.73,SSW,197,11.0,20.0,29,0.00,,,0.27,Wunderground v.1.15,2013-02-13 20:18:00,
2013-02-13 15:23:00,70.6,36.8,29.72,SSE,164,4.0,14.0,29,0.00,,,0.27,Wunderground v.1.15,2013-02-13 20:23:00,
2013-02-13 15:28:00,71.0,38.0,29.72,SW,220,9.0,16.0,30,0.00,,,0.27,Wunderground v.1.15,2013-02-13 20:28:00,
2013-02-13 15:33:00,71.4,38.3,29.72,SW,226,13.0,13.0,30,0.00,,,0.28,Wunderground v.1.15,2013-02-13 20:33:00,
2013-02-13 15:38:00,71.7,40.3,29.72,SW,233,5.0,15.0,32,0.00,,,0.28,Wunderground v.1.15,2013-02-13 20:38:00,
2013-02-13 15:43:00,72.0,43.6,29.72,SW,219,11.0,19.0,36,0.00,,,0.28,Wunderground v.1.15,2013-02-13 20:43:00,
2013-02-13 15:49:00,72.3,51.5,29.72,West,265,11.0,19.0,48,0.00,,,0.28,Wunderground v.1.15,2013-02-13 20:49:00,
2013-02-13 15:54:00,73.2,59.4,29.72,WSW,250,13.0,24.0,62,0.00,,,0.28,Wunderground v.1.15,2013-02-13 20:54:00,
2013-02-13 15:59:00,73.4,58.7,29.73,SW,234,9.0,24.0,60,0.00,,,0.28,Wunderground v.1.15,2013-02-13 20:59:00,
2013-02-13 16:04:00,73.2,59.4,29.73,WNW,296,4.0,16.0,62,0.00,,,0.28,Wunderground v.1.15,2013-02-13 21:04:00,
2013-02-13 16:09:00,73.3,55.6,29.73,West,268,21.0,26.0,54,0.00,,,0.29,Wunderground v.1.15,2013-02-13 21:09:00,
2013-02-13 16:14:00,73.3,53.5,29.74,West,263,10.0,25.0,50,0.00,,,0.29,Wunderground v.1.15,2013-02-13 21:14:00,
2013-02-13 16:19:00,73.1,53.9,29.74,West,267,20.0,25.0,51,0.00,,,0.29,Wunderground v.1.15,2013-02-13 21:19:00,
2013-02-13 16:24:00,73.0,53.3,29.75,WSW,252,14.0,33.0,50,0.00,,,0.29,Wunderground v.1.15,2013-02-13 21:24:00,
2013-02-13 16:29:00,72.9,52.6,29.75,WSW,238,8.0,33.0,49,0.00,,,0.29,Wunderground v.1.15,2013-02-13 21:29:00,
2013-02-13 16:34:00,72.5,52.8,29.76,SW,224,22.0,26.0,50,0.00,,,0.30,Wunderground v.1.15,2013-02-13 21:34:00,
2013-02-13 16:39:00,72.1,52.4,29.77,WNW,298,23.0,30.0,50,0.00,,,0.30,Wunderground v.1.15,2013-02-13 21:39:00,
2013-02-13 16:44:00,71.8,52.7,29.77,West,275,13.0,28.0,51,0.00,,,0.30,Wunderground v.1.15,2013-02-13 21:44:00,
2013-02-13 16:49:00,71.4,53.4,29.77,WSW,252,10.0,28.0,53,0.00,,,0.30,Wunderground v.1.15,2013-02-13 21:49:00,
2013-02-13 16:54:00,71.1,53.1,29.76,West,261,12.0,25.0,53,0.00,,,0.30,Wunderground v.1.15,2013-02-13 21:54:00,
2013-02-13 16:59:00,70.7,53.7,29.77,WNW,296,10.0,25.0,55,0.00,,,0.30,Wunderground v.1.15,2013-02-13 21:59:00,
2013-02-13 17:04:00,70.4,53.5,29.77,West,264,13.0,24.0,55,0.00,,,0.30,Wunderground v.1.15,2013-02-13 22:04:00,
2013-02-13 17:09:00,70.2,52.3,29.78,West,273,11.0,24.0,53,0.00,,,0.31,Wunderground v.1.15,2013-02-13 22:09:00,
2013-02-13 17:14:00,69.9,52.0,29.78,WSW,246,6.0,23.0,53,0.00,,,0.31,Wunderground v.1.15,2013-02-13 22:14:00,
2013-02-13 17:19:00,69.6,51.7,29.78,West,273,6.0,23.0,53,0.00,,,0.31,Wunderground v.1.15,2013-02-13 22:19:00,
2013-02-13 17:24:00,69.4,52.0,29.78,SW,236,21.0,24.0,54,0.00,,,0.31,Wunderground v.1.15,2013-02-13 22:24:00,
2013-02-13 17:29:00,69.1,50.7,29.78,NW,314,14.0,25.0,52,0.00,,,0.31,Wunderground v.1.15,2013-02-13 22:29:00,
2013-02-13 17:34:00,68.9,50.0,29.78,WSW,246,20.0,25.0,51,0.00,,,0.31,Wunderground v.1.15,2013-02-13 22:34:00,
2013-02-13 17:39:00,68.7,49.8,29.79,WSW,249,19.0,27.0,51,0.00,,,0.31,Wunderground v.1.15,2013-02-13 22:39:00,
2013-02-13 17:44:00,68.4,49.6,29.79,WSW,240,14.0,30.0,51,0.00,,,0.32,Wunderground v.1.15,2013-02-13 22:44:00,
2013-02-13 17:49:00,68.0,49.7,29.79,NW,313,11.0,30.0,52,0.00,,,0.32,Wunderground v.1.15,2013-02-13 22:49:00,
2013-02-13 17:54:00,67.0,49.8,29.79,West,274,16.0,27.0,54,0.00,,,0.32,Wunderground v.1.15,2013-02-13 22:54:00,
2013-02-13 17:59:00,66.6,49.9,29.79,WSW,246,23.0,27.0,55,0.00,,,0.32,Wunderground v.1.15,2013-02-13 22:59:00,
2013-02-13 18:04:00,66.3,50.1,29.80,West,260,7.0,25.0,56,0.00,,,0.32,Wunderground v.1.15,2013-02-13 23:04:00,
2013-02-13 18:09:00,65.6,50.4,29.80,WSW,250,13.0,31.0,58,0.00,,,0.32,Wunderground v.1.15,2013-02-13 23:09:00,
2013-02-13 18:14:00,65.0,50.3,29.81,WNW,300,13.0,27.0,59,0.00,,,0.32,Wunderground v.1.15,2013-02-13 23:14:00,
2013-02-13 18:19:00,64.7,50.5,29.81,West,259,15.0,27.0,60,0.00,,,0.32,Wunderground v.1.15,2013-02-13 23:19:00,
2013-02-13 18:24:00,64.2,50.5,29.81,West,271,10.0,23.0,61,0.00,,,0.32,Wunderground v.1.15,2013-02-13 23:24:00,
2013-02-13 18:29:00,64.1,50.4,29.81,SW,229,12.0,23.0,61,0.00,,,0.32,Wunderground v.1.15,2013-02-13 23:29:00,
2013-02-13 18:34:00,63.9,50.6,29.81,SW,234,5.0,20.0,62,0.00,,,0.33,Wunderground v.1.15,2013-02-13 23:34:00,
2013-02-13 18:39:00,63.8,50.1,29.81,West,266,5.0,20.0,61,0.00,,,0.33,Wunderground v.1.15,2013-02-13 23:39:00,
2013-02-13 18:44:00,63.7,50.4,29.81,West,260,8.0,19.0,62,0.00,,,0.33,Wunderground v.1.15,2013-02-13 23:44:00,
2013-02-13 18:49:00,63.6,49.9,29.81,West,259,9.0,25.0,61,0.00,,,0.33,Wunderground v.1.15,2013-02-13 23:49:00,
2013-02-13 18:54:00,63.7,50.0,29.81,WSW,254,21.0,24.0,61,0.00,,,0.33,Wunderground v.1.15,2013-02-13 23:54:00,
2013-02-13 18:59:00,63.9,50.2,29.80,West,271,12.0,24.0,61,0.00,,,0.33,Wunderground v.1.15,2013-02-13 23:59:00,
2013-02-13 19:04:00,63.8,50.5,29.80,SW,225,8.0,28.0,62,0.00,,,0.33,Wunderground v.1.15,2013-02-14 00:04:00,
2013-02-13 19:09:00,63.9,50.2,29.80,SW,236,19.0,28.0,61,0.00,,,0.33,Wunderground v.1.15,2013-02-14 00:09:00,
2013-02-13 19:14:00,64.0,49.8,29.80,SW,236,14.0,19.0,60,0.00,,,0.33,Wunderground v.1.15,2013-02-14 00:14:00,
2013-02-13 19:19:00,64.1,49.5,29.80,WSW,248,11.0,25.0,59,0.00,,,0.34,Wunderground v.1.15,2013-02-14 00:19:00,
2013-02-13 19:24:00,64.2,50.0,29.81,SW,236,14.0,22.0,60,0.00,,,0.34,Wunderground v.1.15,2013-02-14 00:24:00,
2013-02-13 19:29:00,64.2,49.6,29.81,West,260,9.0,22.0,59,0.00,,,0.34,Wunderground v.1.15,2013-02-14 00:29:00,
2013-02-13 19:35:00,64.2,50.0,29.81,West,268,13.0,21.0,60,0.00,,,0.34,Wunderground v.1.15,2013-02-14 00:35:00,
2013-02-13 19:40:00,64.1,49.9,29.80,West,275,14.0,23.0,60,0.00,,,0.34,Wunderground v.1.15,2013-02-14 00:40:00,
2013-02-13 19:45:00,64.2,50.0,29.80,SW,232,11.0,23.0,60,0.00,,,0.34,Wunderground v.1.15,2013-02-14 00:45:00,
2013-02-13 19:50:00,64.0,49.8,29.80,SW,232,20.0,23.0,60,0.00,,,0.34,Wunderground v.1.15,2013-02-14 00:50:00,
2013-02-13 19:55:00,64.0,49.8,29.80,West,260,14.0,24.0,60,0.00,,,0.34,Wunderground v.1.15,2013-02-14 00:55:00,
2013-02-13 20:00:00,64.0,49.8,29.81,WSW,253,14.0,14.0,60,0.00,,,0.34,Wunderground v.1.15,2013-02-14 01:00:00,
2013-02-13 20:05:00,63.9,50.2,29.81,WSW,256,15.0,20.0,61,0.00,,,0.34,Wunderground v.1.15,2013-02-14 01:05:00,
2013-02-13 20:10:00,63.8,50.1,29.81,West,267,7.0,16.0,61,0.00,,,0.34,Wunderground v.1.15,2013-02-14 01:10:00,
2013-02-13 20:15:00,63.8,50.1,29.82,WNW,282,8.0,27.0,61,0.00,,,0.34,Wunderground v.1.15,2013-02-14 01:15:00,
2013-02-13 20:20:00,63.7,49.5,29.82,West,281,16.0,18.0,60,0.00,,,0.35,Wunderground v.1.15,2013-02-14 01:20:00,
2013-02-13 20:25:00,63.6,49.5,29.82,WSW,242,15.0,23.0,60,0.00,,,0.35,Wunderground v.1.15,2013-02-14 01:25:00,
2013-02-13 20:30:00,63.5,49.4,29.81,WNW,303,7.0,16.0,60,0.00,,,0.35,Wunderground v.1.15,2013-02-14 01:30:00,
2013-02-13 20:35:00,63.3,49.6,29.81,West,281,10.0,23.0,61,0.00,,,0.35,Wunderground v.1.15,2013-02-14 01:35:00,
2013-02-13 20:40:00,63.1,49.4,29.82,NW,311,9.0,12.0,61,0.00,,,0.35,Wunderground v.1.15,2013-02-14 01:40:00,
2013-02-13 20:45:00,62.8,49.6,29.82,WNW,287,13.0,26.0,62,0.00,,,0.35,Wunderground v.1.15,2013-02-14 01:45:00,
2013-02-13 20:50:00,62.5,49.3,29.82,WNW,282,3.0,14.0,62,0.00,,,0.35,Wunderground v.1.15,2013-02-14 01:50:00,
2013-02-13 20:55:00,62.1,49.4,29.82,West,267,11.0,22.0,63,0.00,,,0.35,Wunderground v.1.15,2013-02-14 01:55:00,
2013-02-13 21:00:00,61.4,49.1,29.82,West,278,4.0,23.0,64,0.00,,,0.35,Wunderground v.1.15,2013-02-14 02:00:00,
2013-02-13 21:05:00,60.8,49.0,29.83,WNW,295,9.0,26.0,65,0.00,,,0.35,Wunderground v.1.15,2013-02-14 02:05:00,
2013-02-13 21:10:00,59.8,48.4,29.85,WSW,238,11.0,19.0,66,0.00,,,0.36,Wunderground v.1.15,2013-02-14 02:10:00,
2013-02-13 21:15:00,59.2,47.8,29.86,West,261,26.0,29.0,66,0.00,,,0.36,Wunderground v.1.15,2013-02-14 02:15:00,
2013-02-13 21:20:00,59.1,47.3,29.87,WNW,296,15.0,25.0,65,0.00,,,0.36,Wunderground v.1.15,2013-02-14 02:20:00,
2013-02-13 21:25:00,58.4,45.4,29.87,NW,305,9.0,30.0,62,0.00,,,0.36,Wunderground v.1.15,2013-02-14 02:25:00,
2013-02-13 21:30:00,57.6,43.8,29.86,West,273,21.0,22.0,60,0.00,,,0.36,Wunderground v.1.15,2013-02-14 02:30:00,
2013-02-13 21:35:00,56.6,39.7,29.86,West,274,7.0,27.0,53,0.00,,,0.36,Wunderground v.1.15,2013-02-14 02:35:00,
2013-02-13 21:40:00,56.2,36.8,29.86,WSW,250,14.0,15.0,48,0.00,,,0.36,Wunderground v.1.15,2013-02-14 02:40:00,
2013-02-13 21:45:00,55.9,34.3,29.85,West,265,7.0,20.0,44,0.00,,,0.36,Wunderground v.1.15,2013-02-14 02:45:00,
2013-02-13 21:50:00,55.8,32.4,29.85,West,267,6.0,10.0,41,0.00,,,0.36,Wunderground v.1.15,2013-02-14 02:50:00,
2013-02-13 21:55:00,55.7,31.1,29.86,West,269,10.0,21.0,39,0.00,,,0.36,Wunderground v.1.15,2013-02-14 02:55:00,
2013-02-13 22:01:00,55.5,29.6,29.88,West,259,2.0,15.0,37,0.00,,,0.36,Wunderground v.1.15,2013-02-14 03:01:00,
2013-02-13 22:05:00,55.4,28.9,29.88,WSW,249,6.0,20.0,36,0.00,,,0.36,Wunderground v.1.15,2013-02-14 03:05:00,
2013-02-13 22:10:00,55.3,28.1,29.86,WSW,247,7.0,12.0,35,0.00,,,0.36,Wunderground v.1.15,2013-02-14 03:10:00,
2013-02-13 22:15:00,55.3,28.1,29.87,SW,236,11.0,15.0,35,0.00,,,0.36,Wunderground v.1.15,2013-02-14 03:15:00,
2013-02-13 22:20:00,55.3,28.1,29.88,WSW,237,8.0,11.0,35,0.00,,,0.36,Wunderground v.1.15,2013-02-14 03:20:00,
2013-02-13 22:26:00,55.3,27.4,29.88,WSW,252,16.0,18.0,34,0.00,,,0.37,Wunderground v.1.15,2013-02-14 03:26:00,
2013-02-13 22:31:00,55.3,27.4,29.87,WNW,298,7.0,13.0,34,0.00,,,0.37,Wunderground v.1.15,2013-02-14 03:31:00,
2013-02-13 22:36:00,55.3,28.1,29.86,WNW,294,9.0,16.0,35,0.00,,,0.37,Wunderground v.1.15,2013-02-14 03:36:00,
2013-02-13 22:41:00,55.4,28.2,29.88,WSW,245,9.0,10.0,35,0.00,,,0.37,Wunderground v.1.15,2013-02-14 03:41:00,
2013-02-13 22:46:00,55.3,28.1,29.89,WSW,258,11.0,16.0,35,0.00,,,0.37,Wunderground v.1.15,2013-02-14 03:46:00,
2013-02-13 22:51:00,55.2,28.0,29.89,WNW,302,11.0,18.0,35,0.00,,,0.37,Wunderground v.1.15,2013-02-14 03:51:00,
2013-02-13 22:56:00,55.2,28.0,29.89,WNW,284,7.0,18.0,35,0.00,,,0.37,Wunderground v.1.15,2013-02-14 03:56:00,
2013-02-13 23:01:00,55.2,28.0,29.89,WNW,284,6.0,11.0,35,0.00,,,0.37,Wunderground v.1.15,2013-02-14 04:01:00,
2013-02-13 23:06:00,55.0,28.5,29.88,WNW,288,7.0,16.0,36,0.00,,,0.37,Wunderground v.1.15,2013-02-14 04:06:00,
2013-02-13 23:11:00,54.9,28.4,29.89,WNW,287,7.0,15.0,36,0.00,,,0.37,Wunderground v.1.15,2013-02-14 04:11:00,
2013-02-13 23:16:00,54.8,28.3,29.89,West,276,10.0,15.0,36,0.00,,,0.37,Wunderground v.1.15,2013-02-14 04:16:00,
2013-02-13 23:21:00,54.7,28.2,29.88,NW,311,7.0,15.0,36,0.00,,,0.37,Wunderground v.1.15,2013-02-14 04:21:00,
2013-02-13 23:26:00,54.6,28.2,29.88,WNW,292,7.0,15.0,36,0.00,,,0.37,Wunderground v.1.15,2013-02-14 04:26:00,
2013-02-13 23:31:00,54.3,27.9,29.85,West,271,9.0,18.0,36,0.00,,,0.37,Wunderground v.1.15,2013-02-14 04:31:00,
2013-02-13 23:36:00,54.2,28.5,29.87,West,273,10.0,21.0,37,0.00,,,0.38,Wunderground v.1.15,2013-02-14 04:36:00,
2013-02-13 23:41:00,54.1,28.4,29.88,West,277,14.0,14.0,37,0.00,,,0.38,Wunderground v.1.15,2013-02-14 04:41:00,
2013-02-13 23:46:00,54.1,28.4,29.88,WNW,297,4.0,16.0,37,0.00,,,0.38,Wunderground v.1.15,2013-02-14 04:46:00,
2013-02-13 23:51:00,54.1,28.4,29.88,WSW,257,9.0,19.0,37,0.00,,,0.38,Wunderground v.1.15,2013-02-14 04:51:00,
2013-02-13 23:56:00,54.0,28.3,29.88,WNW,286,10.0,19.0,37,0.00,,,0.38,Wunderground v.1.15,2013-02-14 04:56:00,